This is the latest recevied weather packets stored in our database for station/object W8AN. If no packets are shown the sender has not sent any weather packets the latest 10 day(s).
| Time | Temp. | Humidity | Pressure | Rain* | Wind** | Luminosity | Snow |
|---|---|---|---|---|---|---|---|
| 1777666520 | 7.78° C | 75% | 4269.4 hPa | 0 mm | - | 112 W/m² | - |
| 1777666216 | 7.78° C | 74% | 4269.3 hPa | 0 mm | - | 105 W/m² | - |
| 1777665913 | 7.78° C | 75% | 4269.3 hPa | 0 mm | - | 92 W/m² | - |
| 1777665610 | 7.78° C | 75% | 4269.1 hPa | 0 mm | - | 79 W/m² | - |
| 1777665307 | 7.78° C | 75% | 4269.1 hPa | 0 mm | - | 86 W/m² | - |
| 1777665003 | 8.33° C | 74% | 4269 hPa | 0 mm | - | 111 W/m² | - |
| 1777664698 | 8.33° C | 73% | 4269 hPa | 0 mm | - | 142 W/m² | - |
| 1777664394 | 7.78° C | 73% | 4268.9 hPa | 0 mm | - | 237 W/m² | - |
| 1777664093 | 7.78° C | 72% | 4269.1 hPa | 0 mm | - | 239 W/m² | - |
| 1777663790 | 7.78° C | 74% | 4269 hPa | 0 mm | - | 284 W/m² | - |
| 1777663487 | 8.33° C | 76% | 4269 hPa | 0 mm | - | 354 W/m² | - |
| 1777663185 | 8.33° C | 75% | 4269.1 hPa | 0 mm | - | 355 W/m² | - |
| 1777662882 | 7.78° C | 75% | 4269.2 hPa | 0 mm | - | 353 W/m² | - |
| 1777662579 | 8.33° C | 75% | 4269.1 hPa | 0 mm | - | 340 W/m² | - |
| 1777662274 | 7.78° C | 75% | 4268.9 hPa | 0 mm | - | 401 W/m² | - |
| 1777661969 | 8.89° C | 77% | 4268.8 hPa | 0 mm | - | 676 W/m² | - |
| 1777661666 | 8.89° C | 77% | 4268.8 hPa | 0 mm | - | 755 W/m² | - |
| 1777661362 | 7.78° C | 80% | 4268.9 hPa | 0 mm | - | 250 W/m² | - |
| 1777661058 | 8.33° C | 79% | 4268.8 hPa | 0 mm | - | 417 W/m² | - |
| 1777660753 | 7.78° C | 80% | 4269.1 hPa | 0 mm | - | 453 W/m² | - |
| 1777660451 | 7.78° C | 80% | 4268.8 hPa | 0 mm | - | 448 W/m² | - |
| 1777660147 | 7.22° C | 80% | 4269 hPa | 0 mm | - | 891 W/m² | - |
| 1777659844 | 6.67° C | 80% | 4268.7 hPa | 0 mm | - | 234 W/m² | - |
| 1777659540 | 7.78° C | 77% | 4268.7 hPa | 0 mm | - | 122 W/m² | - |
| 1777659238 | 8.33° C | 70% | 4268.8 hPa | 0 mm | - | 249 W/m² | - |
* Rain latest hour (hover to see other rain measurements)
** Current wind speed in m/s (hover to see current wind gust speed)